{"data":{"norad_id":39059,"intl_designator":"2013-001C","name":"COSMOS 2484 (RODNIK-S 6)","alt_names":[],"object_type":"PAYLOAD","status":"ACTIVE","operator":null,"country":"CIS","launch_date":"2013-01-15","launch_site_code":"PLMSC","launch_vehicle":null,"mission":null,"orbit_class":"UNKNOWN","rcs_meters":1.474,"size_class":null,"mass_kg":null,"dimensions":null,"purposes":[],"wikipedia_slug":null,"has_3d_model":false,"image_url":null,"decayed_at":null,"tle_current":{"epoch":"2026-09-20T05:00:52.886016Z","epoch_age_seconds":58727,"freshness":"FRESH","line1":"1 39059U 13001C   26263.20894544  .00000056  00000+0  33515-3 0  9996","line2":"2 39059  82.5056 162.8325 0025457 184.3395 175.7467 12.42942714620367","mean_motion":12.42942714,"eccentricity":0.0025457,"inclination_deg":82.5056,"raan_deg":162.8325,"arg_perigee_deg":184.3395,"mean_anomaly_deg":175.7467,"bstar":0.00033515,"rev_number":62036,"period_min":115.85409237131,"perigee_km":1474.1127843535,"apogee_km":1514.1937630531,"semimajor_km":7872.2902737033,"source":"CELESTRAK","updated_at":"2026-09-20T09:00:13.899775Z"}}}